EW5171 Weather Reports


time (UTC)temp
C
wind
direction
speed
KPH
gust
KPH
rain 1hr
cm
rain 24hr
cm
rain mn
cm
humidity
%
barometer
mb
20260506125005 15 39 3.2 9.7 0.00 0.00 0.00 39 1011.8
20260506124505 15 17 3.2 9.7 0.00 0.00 0.00 38 1011.8
20260506124005 15 62 3.2 9.7 0.00 0.00 0.00 37 1011.8
20260506123505 15 54 4.8 9.7 0.00 0.00 0.00 37 1011.9
20260506123005 15 355 1.6 14.5 0.00 0.00 0.00 39 1011.9
20260506122505 15 250 3.2 14.5 0.00 0.00 0.00 40 1011.9
20260506122003 15 59 4.8 12.9 0.00 0.00 0.00 39 1011.9
20260506121504 15 346 1.6 9.7 0.00 0.00 0.00 39 1011.9
20260506121003 15 20 1.6 9.7 0.00 0.00 0.00 36 1012.0
20260506120503 15 80 1.6 9.7 0.00 0.00 0.00 35 1012.0
20260506120002 15 355 3.2 9.7 0.00 0.00 0.00 36 1012.0
20260506115504 15 337 1.6 8.0 0.00 0.00 0.00 35 1012.0
20260506115002 15 34 3.2 6.4 0.00 0.00 0.00 37 1012.1
20260506114607 14 13 3.2 14.5 0.00 0.00 0.00 38 1012.0
20260506114101 14 322 4.8 14.5 0.00 0.00 0.00 39 1012.1
20260506113600 14 349 4.8 9.7 0.00 0.00 0.00 35 1012.2
20260506113059 15 28 3.2 11.3 0.00 0.00 0.00 38 1012.1
20260506112559 15 62 4.8 12.9 0.00 0.00 0.00 36 1012.0
20260506112057 15 28 3.2 14.5 0.00 0.00 0.00 38 1012.1
20260506111558 15 19 3.2 14.5 0.00 0.00 0.00 36 1012.1
20260506111057 15 61 3.2 8.0 0.00 0.00 0.00 38 1012.1
20260506110557 15 51 3.2 11.3 0.00 0.00 0.00 41 1012.2
20260506105558 15 129 3.2 6.4 0.00 0.00 0.00 42 1012.2
20260506105055 15 71 3.2 8.0 0.00 0.00 0.00 42 1012.2
20260506104554 15 63 3.2 8.0 0.00 0.00 0.00 42 1012.2
20260506104053 15 90 3.2 8.0 0.00 0.00 0.00 43 1012.2
20260506103552 14 58 3.2 8.0 0.00 0.00 0.00 44 1012.2
20260506103052 14 65 1.6 11.3 0.00 0.00 0.00 44 1012.2
20260506102551 14 50 4.8 12.9 0.00 0.00 0.00 40 1012.2
20260506102051 14 63 1.6 12.9 0.00 0.00 0.00 42 1012.2
20260506101559 14 67 3.2 11.3 0.00 0.00 0.00 40 1012.3
20260506101053 14 154 4.8 11.3 0.00 0.00 0.00 40 1012.3
20260506100551 14 46 3.2 8.0 0.00 0.00 0.00 43 1012.2
20260506100050 14 53 3.2 9.7 0.00 0.00 0.00 43 1012.3
20260506095554 13 163 3.2 12.9 0.00 0.00 0.00 42 1012.3
20260506095048 13 109 4.8 12.9 0.00 0.00 0.00 40 1012.2
20260506094607 14 71 4.8 9.7 0.00 0.00 0.00 42 1012.2
20260506094047 14 40 3.2 8.0 0.00 0.00 0.00 43 1012.3
20260506093548 14 59 3.2 8.0 0.00 0.00 0.00 43 1012.2
20260506093052 14 43 3.2 8.0 0.00 0.00 0.00 43 1012.2
20260506092545 13 133 3.2 8.0 0.00 0.00 0.00 44 1012.2
20260506092044 13 112 1.6 6.4 0.00 0.00 0.00 44 1012.2
20260506091544 13 46 3.2 8.0 0.00 0.00 0.00 42 1012.2
20260506091043 13 64 3.2 9.7 0.00 0.00 0.00 42 1012.3
20260506090543 14 79 1.6 12.9 0.00 0.00 0.00 41 1012.3
20260506090041 13 37 3.2 12.9 0.00 0.00 0.00 40 1012.3
20260506085540 13 74 1.6 6.4 0.00 0.00 0.00 40 1012.2
20260506085038 13 55 1.6 8.0 0.00 0.00 0.00 42 1012.2
20260506084538 13 53 3.2 8.0 0.00 0.00 0.00 41 1012.2
20260506084039 13 149 3.2 8.0 0.00 0.00 0.00 39 1012.2
20260506083537 13 63 3.2 8.0 0.00 0.00 0.00 39 1012.1
20260506083036 13 47 3.2 8.0 0.00 0.00 0.00 38 1012.1
20260506082533 13 52 1.6 6.4 0.00 0.00 0.00 39 1012.1
20260506082033 13 81 1.6 6.4 0.00 0.00 0.00 37 1012.1
20260506081531 13 53 1.6 8.0 0.00 0.00 0.00 37 1012.1
20260506081031 12 32 0.0 6.4 0.00 0.00 0.00 44 1012.1
20260506080531 12 117 1.6 6.4 0.00 0.00 0.00 43 1012.1
20260506073527 13 55 0.0 6.4 0.00 0.00 0.00 42 1012.2
20260506073026 12 82 1.6 6.4 0.00 0.00 0.00 42 1012.1
20260506072524 12 110 1.6 6.4 0.00 0.00 0.00 42 1012.1
20260506072022 12 67 1.6 6.4 0.00 0.00 0.00 43 1012.2
20260506071528 12 49 1.6 6.4 0.00 0.00 0.00 44 1012.1
20260506071020 12 54 1.6 4.8 0.00 0.00 0.00 44 1012.1
20260506070518 12 136 0.0 4.8 0.00 0.00 0.00 44 1012.1
20260506062509 9 53 0.0 4.8 0.00 0.00 0.00 73 1012.0
20260506062005 8 186 0.0 3.2 0.00 0.00 0.00 80 1012.1
20260506061508 8 217 1.6 4.8 0.00 0.00 0.00 84 1012.1
20260506061003 7 258 0.0 3.2 0.00 0.00 0.00 92 1012.1
20260506060502 7 258 0.0 6.4 0.00 0.00 0.00 94 1012.0
20260506060105 6 51 0.0 6.4 0.00 0.00 0.00 95 1012.1
20260506051046 3 171 0.0 0.0 0.00 0.00 0.00 95 1012.2
20260506050545 2 171 0.0 0.0 0.00 0.00 0.00 95 1012.2
20260506045043 2 171 0.0 0.0 0.00 0.00 0.00 95 1012.1
20260506044546 1 171 0.0 0.0 0.00 0.00 0.00 94 1012.1
20260506044045 1 171 0.0 0.0 0.00 0.00 0.00 94 1012.0
20260506043541 1 171 0.0 0.0 0.00 0.00 0.00 95 1012.1
20260506043041 1 171 0.0 0.0 0.00 0.00 0.00 94 1012.1
20260506042541 1 171 0.0 0.0 0.00 0.00 0.00 95 1012.1
20260506042040 1 171 0.0 0.0 0.00 0.00 0.00 94 1012.0
20260506041539 1 171 0.0 0.0 0.00 0.00 0.00 94 1012.1
20260506041039 1 171 0.0 0.0 0.00 0.00 0.00 94 1012.2
20260506040539 0 171 0.0 0.0 0.00 0.00 0.00 94 1012.1
20260506040055 0 171 0.0 0.0 0.00 0.00 0.00 94 1012.2
20260506035538 0 171 0.0 0.0 0.00 0.00 0.00 94 1012.2
20260506035037 0 171 0.0 0.0 0.00 0.00 0.00 94 1012.2
20260506034537 0 171 0.0 0.0 0.00 0.00 0.00 94 1012.2
20260506034035 0 171 0.0 0.0 0.00 0.00 0.00 94 1012.2
20260506033535 0 171 0.0 0.0 0.00 0.00 0.00 93 1012.2
20260506033034 0 171 0.0 0.0 0.00 0.00 0.00 93 1012.3
20260506032534 0 171 0.0 0.0 0.00 0.00 0.00 93 1012.3
20260506032035 0 171 0.0 0.0 0.00 0.00 0.00 93 1012.4
20260506031547 0 171 0.0 0.0 0.00 0.00 0.00 93 1012.5
20260506031032 0 171 0.0 0.0 0.00 0.00 0.00 93 1012.4
20260506030532 0 171 0.0 0.0 0.00 0.00 0.00 93 1012.6
20260506030031 0 171 0.0 0.0 0.00 0.00 0.00 93 1012.5
20260506025530 0 171 0.0 0.0 0.00 0.00 0.00 93 1012.5
20260506025030 0 171 0.0 0.0 0.00 0.00 0.00 93 1012.5
20260506024530 0 171 0.0 0.0 0.00 0.00 0.00 93 1012.4
20260506024031 0 171 0.0 0.0 0.00 0.00 0.00 93 1012.4
20260506023531 0 171 0.0 0.0 0.00 0.00 0.00 93 1012.5
20260506023030 0 171 0.0 0.0 0.00 0.00 0.00 93 1012.6
20260506022528 0 171 0.0 0.0 0.00 0.00 0.00 93 1012.5
20260506022028 0 171 0.0 0.0 0.00 0.00 0.00 93 1012.6
20260506021528 0 171 0.0 0.0 0.00 0.00 0.00 92 1012.6
20260506021028 0 171 0.0 0.0 0.00 0.00 0.00 92 1012.5
20260506020530 0 171 0.0 0.0 0.00 0.00 0.00 92 1012.6
20260506020027 0 171 0.0 0.0 0.00 0.00 0.00 92 1012.5
20260506015525 0 171 0.0 0.0 0.00 0.00 0.00 92 1012.5
20260506015026 0 171 0.0 0.0 0.00 0.00 0.00 92 1012.5
20260506014526 0 171 0.0 0.0 0.00 0.00 0.00 92 1012.4
20260506014024 0 171 0.0 0.0 0.00 0.00 0.00 92 1012.4
20260506013525 0 171 0.0 0.0 0.00 0.00 0.00 92 1012.4
20260506013024 0 171 0.0 0.0 0.00 0.00 0.00 92 1012.3
20260506012524 1 171 0.0 0.0 0.00 0.00 0.00 92 1012.3
20260506012025 1 171 0.0 0.0 0.00 0.00 0.00 92 1012.4
20260506011524 1 171 0.0 0.0 0.00 0.00 0.00 92 1012.3
20260506011023 1 171 0.0 0.0 0.00 0.00 0.00 92 1012.2
20260506010522 1 171 0.0 0.0 0.00 0.00 0.00 91 1012.2
20260506010020 1 171 0.0 0.0 0.00 0.00 0.00 91 1012.2
20260506005520 1 171 0.0 0.0 0.00 0.00 0.00 91 1012.2
20260506005020 1 171 0.0 0.0 0.00 0.00 0.00 91 1012.2
20260506004524 2 171 0.0 0.0 0.00 0.00 0.00 92 1012.2
20260506004020 2 171 0.0 0.0 0.00 0.00 0.00 92 1012.2
20260506003519 2 171 0.0 0.0 0.00 0.00 0.00 92 1012.2
20260506003018 2 171 0.0 0.0 0.00 0.00 0.00 92 1012.2
20260506002517 1 171 0.0 0.0 0.00 0.00 0.00 92 1012.1
20260506002017 1 171 0.0 0.0 0.00 0.00 0.00 92 1012.2
20260506001516 1 171 0.0 0.0 0.00 0.00 0.00 91 1012.2
20260506001016 1 171 0.0 0.0 0.00 0.00 0.00 91 1012.2
20260506000516 1 171 0.0 0.0 0.00 0.00 0.00 91 1012.1
20260506000018 1 171 0.0 0.0 0.00 0.00 0.00 91 1012.1
20260505235517 1 171 0.0 0.0 0.00 0.00 0.00 91 1012.2
20260505235015 1 171 0.0 0.0 0.00 0.00 0.00 90 1012.2
20260505234514 1 171 0.0 0.0 0.00 0.00 0.00 90 1012.2
20260505234014 1 171 0.0 0.0 0.00 0.00 0.00 90 1012.2
20260505233514 1 171 0.0 0.0 0.00 0.00 0.00 90 1012.2
20260505233013 1 171 0.0 0.0 0.00 0.00 0.00 90 1012.3
20260505232514 1 171 0.0 0.0 0.00 0.00 0.00 90 1012.3
20260505232012 1 171 0.0 0.0 0.00 0.00 0.00 89 1012.4
20260505231511 1 171 0.0 0.0 0.00 0.00 0.00 89 1012.4
20260505231014 1 171 0.0 0.0 0.00 0.00 0.00 89 1012.4
20260505230510 2 171 0.0 0.0 0.00 0.00 0.00 89 1012.5
20260505230014 2 171 0.0 0.0 0.00 0.00 0.00 89 1012.5
20260505225511 2 171 0.0 0.0 0.00 0.00 0.00 89 1012.5
20260505225011 2 171 0.0 0.0 0.00 0.00 0.00 89 1012.5
20260505224509 1 171 0.0 0.0 0.00 0.00 0.00 89 1012.4
20260505224007 1 171 0.0 0.0 0.00 0.00 0.00 88 1012.3
20260505223512 1 171 0.0 0.0 0.00 0.00 0.00 87 1012.4
20260505223006 1 171 0.0 0.0 0.00 0.00 0.00 87 1012.4
20260505222506 2 171 0.0 0.0 0.00 0.00 0.00 87 1012.4
20260505222004 2 171 0.0 0.0 0.00 0.00 0.00 87 1012.5
20260505221507 2 171 0.0 0.0 0.00 0.00 0.00 86 1012.4
20260505221004 2 171 0.0 0.0 0.00 0.00 0.00 86 1012.4
20260505220501 2 171 0.0 0.0 0.00 0.00 0.00 86 1012.4
20260505220101 2 171 0.0 0.0 0.00 0.00 0.00 86 1012.4
20260505215600 2 171 0.0 0.0 0.00 0.00 0.00 85 1012.5
20260505215059 2 171 0.0 0.0 0.00 0.00 0.00 85 1012.5
20260505214601 2 171 0.0 0.0 0.00 0.00 0.00 84 1012.5
20260505214058 2 171 0.0 0.0 0.00 0.00 0.00 84 1012.6
20260505213556 3 171 0.0 0.0 0.00 0.00 0.00 83 1012.5
20260505213055 3 171 0.0 0.0 0.00 0.00 0.00 84 1012.5
20260505212555 3 171 0.0 0.0 0.00 0.00 0.00 85 1012.5
20260505212055 3 171 0.0 0.0 0.00 0.00 0.00 84 1012.5
20260505211607 3 171 0.0 0.0 0.00 0.00 0.00 84 1012.5
20260505211055 3 171 0.0 0.0 0.00 0.00 0.00 83 1012.5
20260505210554 3 171 0.0 0.0 0.00 0.00 0.00 82 1012.5
20260505210054 4 171 0.0 0.0 0.00 0.00 0.00 81 1012.5
20260505205554 4 171 0.0 0.0 0.00 0.00 0.00 80 1012.5
20260505205057 4 171 0.0 0.0 0.00 0.00 0.00 79 1012.5
20260505204600 5 171 0.0 0.0 0.00 0.00 0.00 78 1012.5
20260505204053 5 171 0.0 0.0 0.00 0.00 0.00 79 1012.5
20260505203557 5 171 0.0 0.0 0.00 0.00 0.00 79 1012.4
20260505203057 5 171 0.0 0.0 0.00 0.00 0.00 78 1012.4
20260505202554 5 171 0.0 0.0 0.00 0.00 0.00 78 1012.5
20260505202055 5 171 0.0 0.0 0.00 0.00 0.00 78 1012.4
20260505201558 5 171 0.0 0.0 0.00 0.00 0.00 77 1012.4
20260505201052 5 171 0.0 0.0 0.00 0.00 0.00 76 1012.4
20260505200553 6 171 0.0 0.0 0.00 0.00 0.00 75 1012.4
20260505200052 6 171 0.0 0.0 0.00 0.00 0.00 74 1012.4
20260505195552 6 171 0.0 0.0 0.00 0.00 0.00 73 1012.4
20260505195052 7 171 0.0 0.0 0.00 0.00 0.00 72 1012.4
20260505194608 7 171 0.0 0.0 0.00 0.00 0.00 70 1012.5
20260505194052 7 171 0.0 0.0 0.00 0.00 0.00 69 1012.4
20260505193551 8 171 0.0 0.0 0.00 0.00 0.00 69 1012.4
20260505193052 8 171 0.0 0.0 0.00 0.00 0.00 70 1012.4
20260505192552 8 171 0.0 1.6 0.00 0.00 0.00 71 1012.4
20260505192050 8 171 0.0 1.6 0.00 0.00 0.00 74 1012.4
20260505191551 8 171 0.0 3.2 0.00 0.00 0.00 72 1012.4
20260505191051 7 171 0.0 3.2 0.00 0.00 0.00 73 1012.3
20260505190550 7 171 0.0 1.6 0.00 0.00 0.00 72 1012.3
20260505190050 7 171 0.0 1.6 0.00 0.00 0.00 71 1012.3
20260505185552 8 171 0.0 0.0 0.00 0.00 0.00 69 1012.3
20260505185050 8 171 0.0 0.0 0.00 0.00 0.00 68 1012.2
20260505184550 8 171 0.0 0.0 0.00 0.00 0.00 68 1012.3
20260505184050 8 171 0.0 0.0 0.00 0.00 0.00 67 1012.2
20260505183549 8 171 0.0 0.0 0.00 0.00 0.00 66 1012.2
20260505183050 9 171 0.0 0.0 0.00 0.00 0.00 65 1012.1
20260505182549 9 171 0.0 0.0 0.00 0.00 0.00 64 1012.1
20260505182049 9 171 0.0 0.0 0.00 0.00 0.00 64 1012.2
20260505181555 9 171 0.0 1.6 0.00 0.00 0.00 62 1012.2
20260505181049 10 171 0.0 1.6 0.00 0.00 0.00 62 1012.2
20260505180548 10 171 0.0 1.6 0.00 0.00 0.00 61 1012.2
20260505180048 10 171 0.0 1.6 0.00 0.00 0.00 61 1012.2
20260505175550 10 171 0.0 1.6 0.00 0.00 0.00 61 1012.2
20260505175048 10 171 0.0 3.2 0.00 0.00 0.00 60 1012.2
20260505174555 10 171 0.0 3.2 0.00 0.00 0.00 58 1012.2
20260505174048 11 184 0.0 3.2 0.00 0.00 0.00 58 1012.3
20260505173549 11 82 0.0 3.2 0.00 0.00 0.00 57 1012.2
20260505173048 11 227 0.0 1.6 0.00 0.00 0.00 56 1012.2
20260505172548 11 227 0.0 1.6 0.00 0.00 0.00 56 1012.2
20260505172048 11 227 0.0 3.2 0.00 0.00 0.00 56 1012.2
20260505171551 11 227 0.0 4.8 0.00 0.00 0.00 57 1012.2
20260505171046 11 69 1.6 4.8 0.00 0.00 0.00 57 1012.2
20260505170546 11 157 0.0 4.8 0.00 0.00 0.00 58 1012.2
20260505170047 11 37 0.0 4.8 0.00 0.00 0.00 56 1012.1
20260505165548 11 82 0.0 6.4 0.00 0.00 0.00 58 1012.2
20260505165046 11 171 1.6 4.8 0.00 0.00 0.00 57 1012.2
20260505164607 11 219 1.6 4.8 0.00 0.00 0.00 57 1012.2
20260505164050 11 147 1.6 4.8 0.00 0.00 0.00 58 1012.2
20260505163545 11 167 1.6 6.4 0.00 0.00 0.00 59 1012.2
20260505163053 11 51 1.6 8.0 0.00 0.00 0.00 59 1012.1
20260505162545 11 63 1.6 8.0 0.00 0.00 0.00 57 1012.2
20260505162045 11 173 3.2 6.4 0.00 0.00 0.00 58 1012.2
20260505161545 11 127 0.0 4.8 0.00 0.00 0.00 58 1012.2
20260505161045 11 73 0.0 6.4 0.00 0.00 0.00 58 1012.2
20260505160545 11 126 1.6 9.7 0.00 0.00 0.00 59 1012.2
20260505153044 11 153 3.2 12.9 0.00 0.00 0.00 58 1012.3
20260505152543 12 165 4.8 9.7 0.00 0.00 0.00 58 1012.2
20260505152043 12 172 4.8 8.0 0.00 0.00 0.00 57 1012.2
20260505151546 12 175 3.2 11.3 0.00 0.00 0.00 57 1012.2
20260505151042 12 171 1.6 11.3 0.00 0.00 0.00 56 1012.2
20260505150542 12 92 0.0 11.3 0.00 0.00 0.00 55 1012.2
20260505140540 12 202 3.2 9.7 0.00 0.00 0.00 59 1012.4